Total_Precipitation_Accumulation
0.91 0.93 0.93 0.89 0.84 0.81 0.77 0.73 0.68 0.60 0.53 0.45 0.39 0.36 0.35 0.33 0.33 0.37 0.42 0.46 0.49 0.51 0.53 0.55 0.59 0.63 0.70 0.74 0.75 0.79 0.86 0.89 0.92 0.87 0.76 0.68 0.62 0.58 0.57 0.53 0.50 0.47 0.43
0.69 0.68 0.72 0.66 0.59 0.57 0.55 0.49 0.45 0.43 0.39 0.34 0.30 0.29 0.29 0.30 0.28 0.29 0.31 0.37 0.43 0.44 0.42 0.44 0.45 0.47 0.54 0.57 0.60 0.63 0.70 0.77 0.80 0.83 0.78 0.69 0.64 0.59 0.56 0.56 0.44 0.37 0.36
0.57 0.55 0.56 0.54 0.50 0.47 0.43 0.38 0.34 0.34 0.35 0.31 0.29 0.28 0.26 0.24 0.24 0.24 0.25 0.30 0.37 0.40 0.38 0.39 0.39 0.40 0.41 0.40 0.45 0.51 0.58 0.67 0.77 0.79 0.75 0.66 0.60 0.53 0.53 0.47 0.42 0.47 0.35
0.51 0.51 0.49 0.46 0.43 0.41 0.38 0.36 0.34 0.29 0.26 0.25 0.24 0.24 0.23 0.21 0.21 0.22 0.22 0.26 0.31 0.34 0.31 0.30 0.30 0.30 0.32 0.36 0.37 0.45 0.54 0.67 0.75 0.74 0.66 0.57 0.54 0.50 0.54 0.52 0.48 0.48 0.40
0.49 0.52 0.50 0.43 0.37 0.35 0.32 0.31 0.30 0.28 0.24 0.20 0.17 0.18 0.15 0.14 0.14 0.16 0.20 0.23 0.27 0.28 0.26 0.25 0.22 0.21 0.24 0.29 0.32 0.39 0.51 0.65 0.69 0.68 0.63 0.57 0.53 0.54 0.53 0.49 0.51 0.46 0.39
0.56 0.59 0.56 0.49 0.42 0.36 0.30 0.26 0.24 0.22 0.19 0.16 0.15 0.17 0.15 0.12 0.14 0.15 0.15 0.19 0.24 0.27 0.26 0.23 0.20 0.17 0.18 0.23 0.28 0.35 0.44 0.54 0.61 0.66 0.63 0.61 0.57 0.55 0.57 0.55 0.57 0.55 0.51
0.54 0.52 0.50 0.45 0.39 0.33 0.27 0.24 0.25 0.26 0.23 0.22 0.22 0.22 0.24 0.19 0.13 0.12 0.12 0.17 0.22 0.24 0.25 0.25 0.21 0.18 0.22 0.27 0.27 0.27 0.30 0.32 0.43 0.60 0.67 0.65 0.65 0.67 0.73 0.70 0.67 0.65 0.61
0.45 0.42 0.37 0.33 0.31 0.28 0.25 0.25 0.27 0.29 0.28 0.27 0.28 0.28 0.29 0.21 0.13 0.09 0.10 0.18 0.22 0.20 0.20 0.23 0.29 0.28 0.24 0.24 0.24 0.28 0.33 0.36 0.40 0.48 0.63 0.65 0.61 0.64 0.71 0.74 0.72 0.70 0.65
0.41 0.39 0.33 0.27 0.27 0.28 0.28 0.29 0.31 0.31 0.30 0.30 0.32 0.36 0.35 0.25 0.14 0.11 0.14 0.21 0.23 0.20 0.17 0.17 0.18 0.20 0.19 0.21 0.27 0.39 0.43 0.46 0.37 0.45 0.56 0.61 0.62 0.65 0.66 0.69 0.79 0.85 0.80
0.38 0.35 0.29 0.26 0.26 0.26 0.29 0.31 0.30 0.31 0.30 0.26 0.31 0.39 0.35 0.25 0.15 0.13 0.17 0.22 0.26 0.26 0.25 0.24 0.18 0.15 0.18 0.20 0.26 0.38 0.47 0.48 0.52 0.72 0.85 0.84 0.79 0.76 0.70 0.75 0.85 0.87 0.87
0.31 0.32 0.31 0.28 0.25 0.24 0.28 0.32 0.31 0.28 0.30 0.29 0.30 0.32 0.31 0.20 0.14 0.12 0.17 0.21 0.23 0.26 0.30 0.32 0.27 0.19 0.18 0.19 0.22 0.32 0.41 0.42 0.60 0.95 1.00 0.89 0.78 0.75 0.69 0.68 0.73 0.80 0.88
0.35 0.38 0.37 0.31 0.22 0.20 0.29 0.33 0.29 0.28 0.32 0.33 0.33 0.32 0.27 0.19 0.12 0.10 0.12 0.15 0.17 0.24 0.33 0.31 0.27 0.23 0.21 0.21 0.24 0.34 0.41 0.54 0.76 1.01 0.98 0.83 0.69 0.63 0.58 0.53 0.57 0.64 0.74
0.38 0.39 0.35 0.26 0.23 0.23 0.27 0.29 0.27 0.26 0.25 0.23 0.23 0.25 0.22 0.18 0.13 0.07 0.08 0.10 0.14 0.21 0.28 0.30 0.28 0.25 0.28 0.39 0.42 0.48 0.59 0.75 0.87 0.92 0.86 0.72 0.60 0.54 0.50 0.48 0.47 0.55 0.61
0.46 0.39 0.31 0.27 0.23 0.20 0.19 0.17 0.17 0.18 0.18 0.18 0.18 0.19 0.17 0.15 0.10 0.07 0.08 0.11 0.14 0.19 0.26 0.36 0.44 0.47 0.52 0.63 0.71 0.77 0.79 0.80 0.77 0.76 0.69 0.60 0.53 0.50 0.48 0.43 0.43 0.47 0.56
0.44 0.35 0.30 0.25 0.20 0.18 0.15 0.11 0.10 0.10 0.08 0.10 0.10 0.10 0.12 0.12 0.06 0.07 0.09 0.10 0.14 0.18 0.23 0.36 0.54 0.64 0.70 0.73 0.76 0.78 0.75 0.68 0.64 0.60 0.55 0.52 0.50 0.49 0.46 0.39 0.39 0.42 0.51
0.31 0.26 0.22 0.17 0.15 0.12 0.12 0.10 0.05 0.03 0.03 0.04 0.04 0.05 0.05 0.06 0.06 0.06 0.08 0.10 0.13 0.17 0.23 0.41 0.53 0.59 0.65 0.67 0.67 0.65 0.59 0.55 0.50 0.47 0.46 0.41 0.39 0.40 0.41 0.38 0.36 0.40 0.47
0.19 0.16 0.13 0.10 0.09 0.08 0.10 0.17 0.19 0.11 0.03 0.02 0.02 0.03 0.04 0.05 0.05 0.05 0.06 0.08 0.11 0.18 0.27 0.42 0.51 0.55 0.60 0.62 0.58 0.54 0.51 0.46 0.39 0.35 0.35 0.33 0.29 0.30 0.34 0.36 0.35 0.36 0.37
0.11 0.07 0.08 0.08 0.06 0.05 0.06 0.09 0.15 0.21 0.20 0.13 0.05 0.03 0.04 0.05 0.06 0.05 0.06 0.09 0.16 0.22 0.34 0.44 0.49 0.52 0.54 0.55 0.50 0.47 0.44 0.37 0.31 0.28 0.28 0.29 0.28 0.27 0.29 0.31 0.30 0.28 0.30
0.07 0.06 0.06 0.04 0.03 0.03 0.03 0.04 0.06 0.11 0.17 0.19 0.15 0.08 0.06 0.09 0.10 0.11 0.12 0.15 0.20 0.25 0.31 0.36 0.41 0.44 0.46 0.45 0.42 0.37 0.35 0.31 0.27 0.25 0.25 0.26 0.27 0.26 0.24 0.22 0.21 0.16 0.22
0.06 0.03 0.03 0.03 0.03 0.03 0.02 0.03 0.04 0.08 0.11 0.13 0.13 0.09 0.10 0.17 0.21 0.20 0.17 0.15 0.15 0.19 0.24 0.29 0.33 0.34 0.34 0.34 0.31 0.28 0.26 0.26 0.24 0.23 0.23 0.24 0.24 0.22 0.18 0.17 0.17 0.18 0.20
0.03 0.02 0.02 0.02 0.02 0.02 0.02 0.02 0.04 0.06 0.08 0.10 0.08 0.06 0.11 0.18 0.23 0.23 0.21 0.19 0.17 0.19 0.21 0.23 0.25 0.25 0.23 0.22 0.22 0.21 0.19 0.19 0.20 0.23 0.23 0.22 0.19 0.15 0.12 0.10 0.10 0.10 0.10
0.02 0.02 0.02 0.02 0.01 0.01 0.01 0.01 0.01 0.03 0.06 0.07 0.07 0.06 0.11 0.15 0.20 0.21 0.20 0.19 0.19 0.20 0.21 0.21 0.20 0.20 0.20 0.19 0.19 0.19 0.16 0.16 0.17 0.22 0.23 0.20 0.16 0.11 0.08 0.07 0.06 0.05 0.05
0.02 0.01 0.01 0.01 0.01 0.00 0.00 0.01 0.01 0.02 0.04 0.05 0.05 0.07 0.09 0.13 0.15 0.18 0.20 0.18 0.16 0.15 0.15 0.16 0.17 0.18 0.17 0.16 0.15 0.13 0.12 0.13 0.14 0.18 0.24 0.21 0.15 0.09 0.08 0.08 0.06 0.05 0.04
0.00 0.01 0.01 0.01 0.01 0.01 0.01 0.01 0.01 0.02 0.03 0.03 0.04 0.06 0.08 0.09 0.11 0.15 0.18 0.18 0.18 0.16 0.15 0.15 0.16 0.16 0.15 0.14 0.13 0.10 0.07 0.08 0.09 0.13 0.18 0.17 0.11 0.08 0.08 0.08 0.07 0.06 0.05
0.01 0.01 0.01 0.01 0.01 0.01 0.01 0.01 0.01 0.02 0.02 0.02 0.02 0.04 0.06 0.06 0.06 0.09 0.13 0.15 0.17 0.18 0.17 0.14 0.12 0.11 0.10 0.08 0.07 0.06 0.07 0.07 0.07 0.08 0.13 0.14 0.09 0.07 0.07 0.07 0.06 0.06 0.06
0.01 0.01 0.01 0.02 0.02 0.02 0.02 0.01 0.01 0.01 0.01 0.01 0.02 0.02 0.03 0.03 0.04 0.04 0.06 0.09 0.12 0.14 0.15 0.14 0.12 0.09 0.06 0.04 0.04 0.04 0.05 0.05 0.04 0.05 0.09 0.13 0.10 0.08 0.08 0.07 0.05 0.06 0.07